User: anonymous   Login
Location: Unspecified
(0.0000°N, 0.0000°E)
Time: 12:49:53
(UTC+00:00)
Language:

NATO 4B - Orbit

View from above orbital plane
View from above orbital plane
View from above satellite
View from above satellite

Ground track
Ground track

The orbit data is extracted from the following two-line orbital elements,

1 22921U 93076A   18199.91209192 -.00000007 +00000-0 +00000-0 0  9990
2 22921 012.3085 019.1843 0003624 321.6844 347.3463 00.98515309090139
Epoch (UTC): 18 July 2018 21:53:24
Eccentricity: 0.0003624
inclination: 12.3085°
perigee height: 36270 km
apogee height: 36301 km
right ascension of ascending node: 19.1843°
argument of perigee: 321.6844°
revolutions per day: 0.98515309
mean anomaly at epoch: 347.3463°
orbit number at epoch: 9013

The dashed part of the orbit path shows where the satellite is in the earth's shadow,  

DLR